Sardinia Regina — IBMS — position and weather

sailwx.info

Track history (hours):
 
Tides and Currents Weather Stations Pressure Air Temp Water Temp Dewpoint Dewpoint Depression Visibility Wind Speed Wind Dir Waves Ship Positions

Sardinia Regina

Last reported at 2014-Oct-25 07:33 UTC. Time now 2014-Oct-25 07:48 UTC.
Position N 43°33' E 010°18'.

Length 146 m; draft 5 m.

Type: Passenger vessel. MMSI: 247079000.

Date/timePositionNaut miles runAvg speedWind from/ knotsBaromVisibWave heightAir tempDewpointWater temp
2014-Oct-25 07:33N 43°33' E 010°18'0 0.0
2014-Oct-25 06:33N 43°33' E 010°18'0 0.0
2014-Oct-25 05:33N 43°33' E 010°18'4 4.0
2014-Oct-25 04:33N 43°30' E 010°15'1515.2
2014-Oct-25 03:33N 43°16' E 010°10'17 0.6
2014-Oct-23 21:33N 42°60' E 010°02'1716.9
2014-Oct-23 20:33N 43°16' E 010°08'1616.0
2014-Oct-23 19:33N 43°31' E 010°14'4 3.7
2014-Oct-23 18:33N 43°33' E 010°18'0 0.0
2014-Oct-23 17:33N 43°33' E 010°18'0 0.0
2014-Oct-23 16:33N 43°33' E 010°18'0 0.0
2014-Oct-23 15:33N 43°33' E 010°18'0 0.0
2014-Oct-23 14:33N 43°33' E 010°18'0 0.0
2014-Oct-23 13:33N 43°33' E 010°18'0 0.0
2014-Oct-23 12:33N 43°33' E 010°18'0 0.0
2014-Oct-23 11:33N 43°33' E 010°18'0 0.0
2014-Oct-23 10:33N 43°33' E 010°18'0 0.0
2014-Oct-23 09:33N 43°33' E 010°18'0 0.0
2014-Oct-23 08:33N 43°33' E 010°18'0 0.0
2014-Oct-23 07:33N 43°33' E 010°18'0 0.0
2014-Oct-23 06:33N 43°33' E 010°18'2 2.2
2014-Oct-23 05:33N 43°32' E 010°16'9 9.3
2014-Oct-23 04:33N 43°23' E 010°11'1615.7
2014-Oct-23 03:33N 43°08' E 010°03'6 0.2
2014-Oct-21 21:24N 43°03' E 010°01'1315.3
2014-Oct-21 20:33N 43°15' E 010°06'1514.6
2014-Oct-21 19:34N 43°29' E 010°12'6 5.7
2014-Oct-21 18:33N 43°33' E 010°18'0 0.0
2014-Oct-21 17:34N 43°33' E 010°18'3 3.3
2014-Oct-21 16:33N 43°31' E 010°15'1211.9
2014-Oct-21 15:33N 43°20' E 010°09'1313.5
2014-Oct-21 14:33N 43°07' E 010°02'17 3.4
2014-Oct-21 09:29N 42°54' E 009°47'1516.3
2014-Oct-21 08:33N 43°05' E 010°00'1615.9
2014-Oct-21 07:33N 43°20' E 010°07'1414.0
2014-Oct-21 06:33N 43°32' E 010°17'1 0.9
2014-Oct-21 05:33N 43°33' E 010°18'0 0.1
2014-Oct-21 04:34N 43°33' E 010°18'1313.0
2014-Oct-21 03:33N 43°21' E 010°11'36 1.2
2014-Oct-19 22:23N 42°47' E 009°58'1315.9
2014-Oct-19 21:33N 42°60' E 010°02'1616.0
2014-Oct-19 20:33N 43°15' E 010°07'1616.3
2014-Oct-19 19:33N 43°31' E 010°13'4 4.4
2014-Oct-19 18:33N 43°33' E 010°18'0 0.0
2014-Oct-19 17:33N 43°33' E 010°18'2 1.8
2014-Oct-19 16:33N 43°32' E 010°16'1212.4
2014-Oct-19 15:33N 43°21' E 010°09'1414.4
2014-Oct-19 14:34N 43°08' E 010°02'1514.5
2014-Oct-19 13:33N 42°55' E 009°51'1615.3
2014-Oct-19 12:30N 42°45' E 009°34'13 4.3
2014-Oct-19 09:30N 42°53' E 009°48'1916.6
2014-Oct-19 08:21N 43°09' E 010°02'1417.0
2014-Oct-19 07:33N 43°22' E 010°08'1313.2
2014-Oct-19 06:33N 43°33' E 010°18'0 0.4
2014-Oct-19 05:33N 43°33' E 010°18'1 1.3
2014-Oct-19 04:33N 43°32' E 010°17'1313.4
2014-Oct-19 03:34N 43°20' E 010°10'1715.2
2014-Oct-19 02:25N 43°03' E 010°05'1315.3
2014-Oct-19 01:34N 42°50' E 010°02'1615.5
2014-Oct-19 00:30N 42°34' E 009°57'1515.3
2014-Oct-18 23:31N 42°19' E 009°55'44 1.7
2014-Oct-17 21:34N 43°03' E 010°03'1716.7
2014-Oct-17 20:34N 43°19' E 010°09'1514.5
2014-Oct-17 19:33N 43°32' E 010°17'1 1.1
2014-Oct-17 18:33N 43°33' E 010°18'0 0.0
2014-Oct-17 17:33N 43°33' E 010°18'2 1.7
2014-Oct-17 16:33N 43°32' E 010°16'1313.1
2014-Oct-17 15:34N 43°20' E 010°08'1515.1
2014-Oct-17 14:34N 43°06' E 010°01'14 2.7
2014-Oct-17 09:32N 42°55' E 009°50'1616.5
2014-Oct-17 08:33N 43°08' E 010°02'1716.8
2014-Oct-17 07:33N 43°24' E 010°09'1110.8
2014-Oct-17 06:33N 43°33' E 010°18'0 0.0
2014-Oct-17 05:33N 43°33' E 010°18'1 1.0
2014-Oct-17 04:33N 43°32' E 010°17'1414.3
2014-Oct-17 03:34N 43°19' E 010°09'5116.6
2014-Oct-17 00:30N 42°29' E 009°57'37 1.4
2014-Oct-15 22:33N 43°06' E 010°06'1717.2
2014-Oct-15 21:33N 43°23' E 010°11'1211.9
2014-Oct-15 20:34N 43°33' E 010°18'0 0.1
2014-Oct-15 19:34N 43°33' E 010°18'0 0.0
2014-Oct-15 18:34N 43°33' E 010°18'0 0.0
2014-Oct-15 17:34N 43°33' E 010°18'2 1.7
2014-Oct-15 16:34N 43°32' E 010°16'1616.0
2014-Oct-15 15:33N 43°18' E 010°07'1917.9
2014-Oct-15 14:31N 43°00' E 009°58'5 1.0
2014-Oct-15 09:33N 42°57' E 009°53'1616.5
2014-Oct-15 08:33N 43°11' E 010°03'  
Track history (hours):
 
Tides and Currents Weather Stations Pressure Air Temp Water Temp Dewpoint Dewpoint Depression Visibility Wind Speed Wind Dir Waves Ship Positions

Sardinia Regina

Last reported at 2014-Oct-25 07:33 UTC. Time now 2014-Oct-25 07:48 UTC.
Position N 43°33' E 010°18'.

Length 146 m; draft 5 m.

Type: Passenger vessel. MMSI: 247079000.

Date/timePositionNaut miles runAvg speedWind from/ knotsBaromVisibWave heightAir tempDewpointWater temp
2014-Oct-25 07:33N 43°33' E 010°18'0 0.0
2014-Oct-25 06:33N 43°33' E 010°18'0 0.0
2014-Oct-25 05:33N 43°33' E 010°18'4 4.0
2014-Oct-25 04:33N 43°30' E 010°15'1515.2
2014-Oct-25 03:33N 43°16' E 010°10'17 0.6
2014-Oct-23 21:33N 42°60' E 010°02'1716.9
2014-Oct-23 20:33N 43°16' E 010°08'1616.0
2014-Oct-23 19:33N 43°31' E 010°14'4 3.7
2014-Oct-23 18:33N 43°33' E 010°18'0 0.0
2014-Oct-23 17:33N 43°33' E 010°18'0 0.0
2014-Oct-23 16:33N 43°33' E 010°18'0 0.0
2014-Oct-23 15:33N 43°33' E 010°18'0 0.0
2014-Oct-23 14:33N 43°33' E 010°18'0 0.0
2014-Oct-23 13:33N 43°33' E 010°18'0 0.0
2014-Oct-23 12:33N 43°33' E 010°18'0 0.0
2014-Oct-23 11:33N 43°33' E 010°18'0 0.0
2014-Oct-23 10:33N 43°33' E 010°18'0 0.0
2014-Oct-23 09:33N 43°33' E 010°18'0 0.0
2014-Oct-23 08:33N 43°33' E 010°18'0 0.0
2014-Oct-23 07:33N 43°33' E 010°18'0 0.0
2014-Oct-23 06:33N 43°33' E 010°18'2 2.2
2014-Oct-23 05:33N 43°32' E 010°16'9 9.3
2014-Oct-23 04:33N 43°23' E 010°11'1615.7
2014-Oct-23 03:33N 43°08' E 010°03'6 0.2
2014-Oct-21 21:24N 43°03' E 010°01'1315.3
2014-Oct-21 20:33N 43°15' E 010°06'1514.6
2014-Oct-21 19:34N 43°29' E 010°12'6 5.7
2014-Oct-21 18:33N 43°33' E 010°18'0 0.0
2014-Oct-21 17:34N 43°33' E 010°18'3 3.3
2014-Oct-21 16:33N 43°31' E 010°15'1211.9
2014-Oct-21 15:33N 43°20' E 010°09'1313.5
2014-Oct-21 14:33N 43°07' E 010°02'17 3.4
2014-Oct-21 09:29N 42°54' E 009°47'1516.3
2014-Oct-21 08:33N 43°05' E 010°00'1615.9
2014-Oct-21 07:33N 43°20' E 010°07'1414.0
2014-Oct-21 06:33N 43°32' E 010°17'1 0.9
2014-Oct-21 05:33N 43°33' E 010°18'0 0.1
2014-Oct-21 04:34N 43°33' E 010°18'1313.0
2014-Oct-21 03:33N 43°21' E 010°11'36 1.2
2014-Oct-19 22:23N 42°47' E 009°58'1315.9
2014-Oct-19 21:33N 42°60' E 010°02'1616.0
2014-Oct-19 20:33N 43°15' E 010°07'1616.3
2014-Oct-19 19:33N 43°31' E 010°13'4 4.4
2014-Oct-19 18:33N 43°33' E 010°18'0 0.0
2014-Oct-19 17:33N 43°33' E 010°18'2 1.8
2014-Oct-19 16:33N 43°32' E 010°16'1212.4
2014-Oct-19 15:33N 43°21' E 010°09'1414.4
2014-Oct-19 14:34N 43°08' E 010°02'1514.5
2014-Oct-19 13:33N 42°55' E 009°51'1615.3
2014-Oct-19 12:30N 42°45' E 009°34'13 4.3
2014-Oct-19 09:30N 42°53' E 009°48'1916.6
2014-Oct-19 08:21N 43°09' E 010°02'1417.0
2014-Oct-19 07:33N 43°22' E 010°08'1313.2
2014-Oct-19 06:33N 43°33' E 010°18'0 0.4
2014-Oct-19 05:33N 43°33' E 010°18'1 1.3
2014-Oct-19 04:33N 43°32' E 010°17'1313.4
2014-Oct-19 03:34N 43°20' E 010°10'1715.2
2014-Oct-19 02:25N 43°03' E 010°05'1315.3
2014-Oct-19 01:34N 42°50' E 010°02'1615.5
2014-Oct-19 00:30N 42°34' E 009°57'1515.3
2014-Oct-18 23:31N 42°19' E 009°55'44 1.7
2014-Oct-17 21:34N 43°03' E 010°03'1716.7
2014-Oct-17 20:34N 43°19' E 010°09'1514.5
2014-Oct-17 19:33N 43°32' E 010°17'1 1.1
2014-Oct-17 18:33N 43°33' E 010°18'0 0.0
2014-Oct-17 17:33N 43°33' E 010°18'2 1.7
2014-Oct-17 16:33N 43°32' E 010°16'1313.1
2014-Oct-17 15:34N 43°20' E 010°08'1515.1
2014-Oct-17 14:34N 43°06' E 010°01'14 2.7
2014-Oct-17 09:32N 42°55' E 009°50'1616.5
2014-Oct-17 08:33N 43°08' E 010°02'1716.8
2014-Oct-17 07:33N 43°24' E 010°09'1110.8
2014-Oct-17 06:33N 43°33' E 010°18'0 0.0
2014-Oct-17 05:33N 43°33' E 010°18'1 1.0
2014-Oct-17 04:33N 43°32' E 010°17'1414.3
2014-Oct-17 03:34N 43°19' E 010°09'5116.6
2014-Oct-17 00:30N 42°29' E 009°57'37 1.4
2014-Oct-15 22:33N 43°06' E 010°06'1717.2
2014-Oct-15 21:33N 43°23' E 010°11'1211.9
2014-Oct-15 20:34N 43°33' E 010°18'0 0.1
2014-Oct-15 19:34N 43°33' E 010°18'0 0.0
2014-Oct-15 18:34N 43°33' E 010°18'0 0.0
2014-Oct-15 17:34N 43°33' E 010°18'2 1.7
2014-Oct-15 16:34N 43°32' E 010°16'1616.0
2014-Oct-15 15:33N 43°18' E 010°07'1917.9
2014-Oct-15 14:31N 43°00' E 009°58'5 1.0
2014-Oct-15 09:33N 42°57' E 009°53'1616.5
2014-Oct-15 08:33N 43°11' E 010°03'  

Dump ship's entire track history